QPF
0.00 0.00 0.01 0.01 0.01 0.01 0.01 0.01 0.02 0.03 0.04 0.05 0.04 0.01 0.01 0.01 0.03 0.03 0.02 0.02 0.01 0.01 0.01 0.02 0.02 0.01 0.01 0.00 0.01 0.02 0.03 0.05 0.05 0.05 0.10 0.12 0.07 0.03 0.01 0.02 0.04 0.06 0.02
0.00 0.00 0.01 0.03 0.03 0.02 0.01 0.01 0.02 0.03 0.06 0.07 0.08 0.03 0.01 0.03 0.03 0.01 0.00 0.00 0.00 0.00 0.01 0.02 0.02 0.01 0.01 0.01 0.01 0.02 0.03 0.02 0.02 0.03 0.08 0.11 0.08 0.03 0.02 0.02 0.05 0.07 0.03
0.00 0.00 0.01 0.02 0.03 0.02 0.02 0.05 0.05 0.05 0.08 0.08 0.10 0.05 0.03 0.03 0.03 0.02 0.01 0.00 0.00 0.00 0.00 0.02 0.02 0.01 0.01 0.02 0.03 0.03 0.03 0.02 0.01 0.01 0.05 0.20 0.17 0.03 0.03 0.08 0.10 0.07 0.05
0.00 0.00 0.02 0.03 0.03 0.01 0.02 0.05 0.07 0.08 0.09 0.08 0.07 0.04 0.02 0.03 0.05 0.06 0.03 0.02 0.01 0.00 0.00 0.01 0.01 0.01 0.02 0.03 0.05 0.04 0.03 0.02 0.01 0.02 0.12 0.22 0.21 0.06 0.07 0.16 0.16 0.09 0.07
0.00 0.01 0.04 0.05 0.04 0.03 0.03 0.05 0.06 0.10 0.12 0.10 0.05 0.02 0.01 0.01 0.03 0.04 0.02 0.02 0.01 0.00 0.00 0.00 0.01 0.01 0.01 0.01 0.02 0.02 0.02 0.02 0.04 0.12 0.20 0.24 0.21 0.08 0.08 0.15 0.15 0.08 0.07
0.00 0.01 0.02 0.03 0.06 0.06 0.05 0.07 0.08 0.10 0.14 0.11 0.04 0.02 0.01 0.01 0.02 0.01 0.03 0.02 0.00 0.00 0.00 0.00 0.00 0.01 0.01 0.00 0.00 0.00 0.01 0.02 0.08 0.11 0.17 0.21 0.17 0.07 0.08 0.12 0.13 0.10 0.05
0.00 0.00 0.01 0.02 0.04 0.05 0.04 0.08 0.10 0.10 0.12 0.07 0.03 0.02 0.01 0.01 0.00 0.01 0.02 0.01 0.00 0.00 0.00 0.00 0.00 0.01 0.01 0.01 0.00 0.00 0.00 0.01 0.03 0.05 0.13 0.21 0.13 0.09 0.10 0.13 0.14 0.12 0.06
0.00 0.00 0.00 0.01 0.02 0.02 0.02 0.06 0.09 0.09 0.09 0.06 0.02 0.02 0.01 0.00 0.00 0.01 0.01 0.00 0.00 0.00 0.00 0.00 0.01 0.02 0.01 0.00 0.00 0.00 0.00 0.00 0.00 0.01 0.06 0.11 0.11 0.11 0.08 0.11 0.14 0.11 0.09
0.00 0.00 0.00 0.00 0.00 0.00 0.01 0.03 0.04 0.06 0.08 0.06 0.03 0.01 0.00 0.00 0.00 0.00 0.00 0.00 0.00 0.00 0.00 0.00 0.01 0.01 0.00 0.00 0.00 0.00 0.00 0.00 0.00 0.01 0.03 0.04 0.04 0.04 0.04 0.06 0.10 0.12 0.10
0.00 0.00 0.00 0.00 0.00 0.00 0.00 0.01 0.02 0.04 0.06 0.06 0.03 0.01 0.00 0.00 0.00 0.00 0.00 0.00 0.00 0.00 0.00 0.00 0.00 0.00 0.00 0.00 0.00 0.00 0.00 0.00 0.01 0.01 0.06 0.03 0.00 0.00 0.01 0.02 0.03 0.03 0.03
0.00 0.00 0.00 0.00 0.00 0.00 0.00 0.00 0.01 0.02 0.03 0.03 0.01 0.00 0.01 0.02 0.01 0.00 0.00 0.00 0.00 0.00 0.00 0.00 0.00 0.00 0.00 0.00 0.00 0.00 0.00 0.01 0.01 0.02 0.05 0.02 0.00 0.00 0.00 0.00 0.00 0.00 0.00
0.00 0.00 0.00 0.00 0.00 0.00 0.02 0.04 0.10 0.06 0.02 0.01 0.00 0.00 0.04 0.03 0.02 0.00 0.00 0.00 0.00 0.00 0.00 0.00 0.00 0.00 0.00 0.00 0.00 0.00 0.00 0.00 0.01 0.02 0.01 0.01 0.01 0.00 0.00 0.00 0.00 0.00 0.00
0.00 0.00 0.00 0.00 0.00 0.00 0.04 0.08 0.11 0.15 0.09 0.04 0.00 0.00 0.05 0.02 0.00 0.00 0.00 0.00 0.00 0.00 0.00 0.00 0.00 0.00 0.00 0.00 0.00 0.00 0.00 0.00 0.02 0.03 0.00 0.01 0.02 0.02 0.01 0.01 0.01 0.00 0.01
0.00 0.00 0.00 0.00 0.00 0.00 0.00 0.01 0.03 0.06 0.09 0.06 0.01 0.00 0.01 0.00 0.00 0.00 0.00 0.01 0.00 0.00 0.00 0.00 0.00 0.00 0.00 0.00 0.00 0.00 0.00 0.00 0.05 0.05 0.02 0.02 0.02 0.02 0.02 0.01 0.01 0.01 0.01
0.00 0.00 0.00 0.00 0.00 0.00 0.00 0.00 0.00 0.01 0.03 0.04 0.03 0.00 0.00 0.00 0.00 0.00 0.00 0.00 0.00 0.00 0.00 0.00 0.00 0.00 0.00 0.00 0.00 0.00 0.00 0.01 0.04 0.05 0.05 0.06 0.06 0.05 0.05 0.03 0.02 0.02 0.02
0.00 0.00 0.00 0.00 0.00 0.00 0.00 0.00 0.00 0.00 0.01 0.02 0.02 0.00 0.00 0.00 0.00 0.00 0.00 0.00 0.00 0.00 0.00 0.00 0.00 0.00 0.00 0.00 0.00 0.00 0.00 0.01 0.02 0.03 0.06 0.14 0.17 0.09 0.07 0.09 0.07 0.06 0.05
0.00 0.00 0.00 0.00 0.00 0.00 0.01 0.00 0.00 0.00 0.00 0.01 0.02 0.01 0.00 0.00 0.00 0.00 0.00 0.00 0.00 0.00 0.00 0.00 0.00 0.00 0.00 0.00 0.00 0.00 0.00 0.00 0.00 0.00 0.01 0.05 0.09 0.09 0.08 0.06 0.08 0.08 0.08
0.00 0.00 0.00 0.00 0.00 0.00 0.01 0.01 0.01 0.00 0.00 0.01 0.02 0.01 0.00 0.00 0.00 0.00 0.00 0.00 0.00 0.00 0.00 0.00 0.00 0.00 0.00 0.00 0.00 0.00 0.00 0.00 0.00 0.00 0.00 0.00 0.01 0.01 0.02 0.01 0.01 0.03 0.05
0.00 0.00 0.00 0.00 0.00 0.00 0.00 0.00 0.01 0.01 0.01 0.01 0.02 0.02 0.00 0.00 0.00 0.00 0.00 0.00 0.00 0.00 0.00 0.00 0.00 0.00 0.00 0.00 0.00 0.00 0.00 0.00 0.00 0.00 0.00 0.00 0.00 0.00 0.00 0.00 0.00 0.00 0.00
0.00 0.00 0.00 0.00 0.00 0.01 0.03 0.05 0.07 0.05 0.04 0.05 0.08 0.05 0.01 0.00 0.00 0.00 0.00 0.00 0.00 0.00 0.01 0.01 0.02 0.03 0.01 0.00 0.00 0.00 0.00 0.00 0.00 0.00 0.00 0.00 0.00 0.00 0.00 0.00 0.00 0.00 0.00
0.00 0.00 0.00 0.00 0.00 0.03 0.05 0.10 0.15 0.19 0.16 0.15 0.17 0.12 0.10 0.04 0.02 0.01 0.00 0.00 0.00 0.00 0.01 0.01 0.07 0.13 0.09 0.01 0.02 0.03 0.01 0.00 0.00 0.00 0.00 0.00 0.00 0.00 0.00 0.00 0.00 0.00 0.00
0.00 0.00 0.00 0.00 0.00 0.01 0.02 0.04 0.09 0.17 0.16 0.13 0.14 0.13 0.14 0.11 0.06 0.03 0.01 0.01 0.01 0.02 0.02 0.06 0.13 0.18 0.12 0.03 0.05 0.15 0.09 0.03 0.00 0.00 0.00 0.00 0.00 0.00 0.00 0.00 0.00 0.00 0.00
0.00 0.00 0.00 0.00 0.00 0.00 0.01 0.02 0.04 0.09 0.10 0.15 0.17 0.16 0.16 0.16 0.12 0.08 0.04 0.02 0.02 0.02 0.04 0.08 0.16 0.24 0.14 0.05 0.03 0.10 0.17 0.14 0.03 0.00 0.00 0.00 0.00 0.00 0.00 0.00 0.00 0.00 0.00
0.00 0.00 0.00 0.00 0.00 0.00 0.01 0.01 0.03 0.06 0.10 0.12 0.12 0.12 0.11 0.13 0.14 0.12 0.07 0.06 0.05 0.04 0.07 0.08 0.13 0.24 0.26 0.17 0.07 0.03 0.04 0.05 0.04 0.04 0.01 0.00 0.00 0.00 0.00 0.00 0.00 0.00 0.00
0.00 0.00 0.00 0.00 0.00 0.00 0.01 0.02 0.04 0.07 0.08 0.08 0.07 0.09 0.10 0.12 0.11 0.08 0.06 0.06 0.07 0.07 0.07 0.10 0.15 0.25 0.28 0.26 0.15 0.07 0.04 0.03 0.01 0.04 0.06 0.02 0.00 0.00 0.00 0.00 0.00 0.00 0.00
0.00 0.00 0.00 0.00 0.00 0.00 0.00 0.01 0.01 0.03 0.05 0.06 0.07 0.09 0.11 0.13 0.10 0.08 0.07 0.05 0.07 0.08 0.08 0.10 0.16 0.25 0.26 0.27 0.19 0.10 0.08 0.04 0.01 0.01 0.04 0.04 0.02 0.00 0.00 0.00 0.00 0.00 0.00
MSLP
1008.09 1007.95 1007.96 1008.14 1008.48 1008.90 1009.33 1009.69 1009.92 1010.03 1010.04 1010.03 1010.06 1010.19 1010.43 1010.78 1011.18 1011.57 1011.88 1012.07 1012.14 1012.12 1012.03 1011.95 1011.90 1011.91 1011.98 1012.08 1012.18 1012.25 1012.29 1012.29 1012.28 1012.29 1012.33 1012.41 1012.51 1012.63 1012.73 1012.79 1012.80 1012.78 1012.74
1007.85 1007.83 1007.98 1008.30 1008.74 1009.24 1009.69 1010.04 1010.24 1010.29 1010.26 1010.21 1010.22 1010.36 1010.62 1011.00 1011.42 1011.83 1012.15 1012.34 1012.41 1012.37 1012.28 1012.19 1012.13 1012.13 1012.18 1012.25 1012.32 1012.37 1012.38 1012.38 1012.37 1012.39 1012.46 1012.56 1012.68 1012.80 1012.88 1012.92 1012.90 1012.85 1012.81
1007.63 1007.73 1007.99 1008.41 1008.95 1009.50 1009.98 1010.33 1010.51 1010.54 1010.49 1010.43 1010.45 1010.58 1010.85 1011.22 1011.63 1012.02 1012.31 1012.49 1012.55 1012.51 1012.44 1012.36 1012.32 1012.33 1012.38 1012.43 1012.47 1012.49 1012.49 1012.47 1012.48 1012.52 1012.60 1012.73 1012.87 1012.99 1013.06 1013.08 1013.04 1012.98 1012.94
1007.43 1007.62 1007.97 1008.47 1009.06 1009.65 1010.15 1010.51 1010.71 1010.75 1010.71 1010.67 1010.70 1010.84 1011.10 1011.44 1011.81 1012.15 1012.40 1012.55 1012.59 1012.57 1012.53 1012.49 1012.49 1012.53 1012.58 1012.63 1012.65 1012.65 1012.63 1012.61 1012.62 1012.68 1012.79 1012.93 1013.08 1013.20 1013.27 1013.27 1013.23 1013.17 1013.13
1007.27 1007.52 1007.92 1008.46 1009.08 1009.69 1010.21 1010.59 1010.81 1010.89 1010.90 1010.90 1010.96 1011.11 1011.36 1011.66 1011.97 1012.25 1012.44 1012.55 1012.60 1012.60 1012.59 1012.61 1012.66 1012.73 1012.80 1012.85 1012.87 1012.85 1012.81 1012.79 1012.80 1012.87 1013.00 1013.16 1013.31 1013.43 1013.48 1013.48 1013.44 1013.39 1013.37
1007.18 1007.45 1007.87 1008.42 1009.04 1009.65 1010.17 1010.57 1010.82 1010.96 1011.03 1011.10 1011.21 1011.38 1011.62 1011.89 1012.14 1012.35 1012.50 1012.57 1012.61 1012.63 1012.67 1012.74 1012.84 1012.95 1013.05 1013.10 1013.11 1013.08 1013.03 1013.01 1013.02 1013.10 1013.23 1013.39 1013.54 1013.64 1013.69 1013.68 1013.64 1013.60 1013.61
1007.15 1007.44 1007.86 1008.40 1009.00 1009.59 1010.10 1010.51 1010.79 1010.99 1011.13 1011.27 1011.43 1011.65 1011.89 1012.13 1012.34 1012.50 1012.59 1012.64 1012.67 1012.71 1012.78 1012.90 1013.03 1013.18 1013.29 1013.34 1013.35 1013.31 1013.26 1013.23 1013.25 1013.33 1013.46 1013.61 1013.74 1013.83 1013.86 1013.85 1013.81 1013.78 1013.82
1007.20 1007.50 1007.92 1008.44 1009.01 1009.57 1010.06 1010.46 1010.77 1011.00 1011.20 1011.40 1011.63 1011.88 1012.14 1012.38 1012.57 1012.69 1012.76 1012.78 1012.81 1012.86 1012.94 1013.08 1013.23 1013.38 1013.49 1013.54 1013.54 1013.49 1013.45 1013.42 1013.45 1013.54 1013.67 1013.81 1013.92 1013.99 1014.00 1013.97 1013.92 1013.92 1013.97
1007.31 1007.62 1008.05 1008.57 1009.11 1009.63 1010.09 1010.46 1010.77 1011.02 1011.26 1011.51 1011.79 1012.08 1012.37 1012.61 1012.80 1012.91 1012.97 1012.99 1013.00 1013.05 1013.13 1013.25 1013.40 1013.53 1013.62 1013.66 1013.64 1013.61 1013.57 1013.57 1013.62 1013.72 1013.85 1013.98 1014.07 1014.11 1014.10 1014.05 1014.01 1014.00 1014.07
1007.43 1007.78 1008.23 1008.74 1009.27 1009.75 1010.17 1010.51 1010.79 1011.04 1011.29 1011.57 1011.88 1012.21 1012.52 1012.79 1013.00 1013.12 1013.18 1013.20 1013.21 1013.25 1013.31 1013.40 1013.51 1013.60 1013.66 1013.68 1013.66 1013.64 1013.63 1013.66 1013.75 1013.87 1014.01 1014.14 1014.22 1014.24 1014.20 1014.14 1014.08 1014.07 1014.14
1007.50 1007.90 1008.39 1008.91 1009.43 1009.89 1010.27 1010.57 1010.81 1011.04 1011.28 1011.56 1011.88 1012.23 1012.57 1012.87 1013.10 1013.26 1013.34 1013.37 1013.39 1013.41 1013.44 1013.49 1013.55 1013.59 1013.62 1013.62 1013.61 1013.61 1013.64 1013.72 1013.85 1014.02 1014.18 1014.31 1014.38 1014.39 1014.34 1014.26 1014.19 1014.18 1014.23
1007.46 1007.91 1008.44 1008.99 1009.51 1009.95 1010.30 1010.56 1010.77 1010.96 1011.17 1011.44 1011.76 1012.11 1012.47 1012.80 1013.07 1013.27 1013.39 1013.45 1013.48 1013.49 1013.50 1013.51 1013.52 1013.53 1013.52 1013.51 1013.51 1013.55 1013.63 1013.77 1013.96 1014.17 1014.36 1014.51 1014.58 1014.59 1014.53 1014.44 1014.37 1014.34 1014.38
1007.26 1007.75 1008.32 1008.90 1009.43 1009.87 1010.20 1010.44 1010.61 1010.78 1010.96 1011.21 1011.51 1011.86 1012.23 1012.58 1012.89 1013.12 1013.29 1013.39 1013.45 1013.48 1013.48 1013.47 1013.46 1013.43 1013.41 1013.40 1013.43 1013.51 1013.65 1013.85 1014.09 1014.34 1014.56 1014.73 1014.82 1014.82 1014.77 1014.69 1014.62 1014.59 1014.61
1006.88 1007.40 1007.99 1008.59 1009.14 1009.59 1009.92 1010.16 1010.34 1010.48 1010.66 1010.88 1011.16 1011.49 1011.86 1012.22 1012.55 1012.83 1013.05 1013.21 1013.31 1013.37 1013.40 1013.39 1013.38 1013.35 1013.34 1013.35 1013.41 1013.54 1013.73 1013.97 1014.26 1014.54 1014.78 1014.96 1015.06 1015.08 1015.04 1014.97 1014.92 1014.89 1014.91
1006.38 1006.90 1007.49 1008.10 1008.66 1009.13 1009.49 1009.76 1009.96 1010.12 1010.29 1010.50 1010.77 1011.08 1011.42 1011.78 1012.12 1012.43 1012.70 1012.91 1013.08 1013.20 1013.27 1013.31 1013.33 1013.34 1013.35 1013.40 1013.50 1013.66 1013.89 1014.16 1014.46 1014.75 1015.00 1015.18 1015.28 1015.31 1015.29 1015.25 1015.22 1015.22 1015.25
1005.82 1006.31 1006.89 1007.48 1008.05 1008.55 1008.97 1009.29 1009.55 1009.76 1009.95 1010.17 1010.41 1010.69 1011.00 1011.33 1011.66 1011.99 1012.29 1012.56 1012.80 1012.99 1013.15 1013.26 1013.34 1013.41 1013.47 1013.57 1013.71 1013.90 1014.14 1014.41 1014.70 1014.97 1015.19 1015.35 1015.44 1015.48 1015.48 1015.48 1015.49 1015.52 1015.57
1005.31 1005.77 1006.30 1006.88 1007.45 1007.99 1008.46 1008.86 1009.20 1009.47 1009.71 1009.94 1010.17 1010.41 1010.67 1010.95 1011.26 1011.57 1011.90 1012.22 1012.53 1012.80 1013.05 1013.25 1013.42 1013.57 1013.70 1013.85 1014.02 1014.23 1014.46 1014.72 1014.97 1015.19 1015.36 1015.48 1015.54 1015.58 1015.60 1015.63 1015.68 1015.76 1015.84
1004.96 1005.36 1005.85 1006.39 1006.96 1007.53 1008.07 1008.56 1008.98 1009.34 1009.63 1009.87 1010.08 1010.28 1010.48 1010.70 1010.95 1011.24 1011.57 1011.92 1012.29 1012.66 1013.00 1013.30 1013.57 1013.80 1014.01 1014.21 1014.42 1014.63 1014.85 1015.06 1015.25 1015.41 1015.51 1015.57 1015.60 1015.62 1015.65 1015.71 1015.81 1015.93 1016.06
1004.81 1005.18 1005.62 1006.13 1006.69 1007.28 1007.87 1008.43 1008.94 1009.37 1009.71 1009.97 1010.16 1010.31 1010.44 1010.58 1010.77 1011.02 1011.33 1011.70 1012.12 1012.55 1012.98 1013.38 1013.75 1014.07 1014.35 1014.61 1014.85 1015.07 1015.26 1015.43 1015.56 1015.65 1015.68 1015.68 1015.66 1015.66 1015.69 1015.77 1015.90 1016.06 1016.23
1004.89 1005.23 1005.64 1006.11 1006.65 1007.25 1007.87 1008.48 1009.05 1009.54 1009.92 1010.19 1010.36 1010.45 1010.51 1010.58 1010.70 1010.89 1011.18 1011.56 1012.00 1012.49 1012.99 1013.47 1013.92 1014.32 1014.68 1014.98 1015.25 1015.48 1015.67 1015.81 1015.89 1015.91 1015.89 1015.83 1015.77 1015.74 1015.76 1015.84 1016.00 1016.19 1016.39
1005.15 1005.50 1005.88 1006.32 1006.83 1007.41 1008.03 1008.66 1009.26 1009.78 1010.18 1010.44 1010.58 1010.63 1010.63 1010.64 1010.69 1010.84 1011.10 1011.47 1011.93 1012.45 1013.00 1013.54 1014.04 1014.51 1014.92 1015.27 1015.58 1015.83 1016.02 1016.15 1016.21 1016.20 1016.13 1016.04 1015.95 1015.89 1015.90 1015.98 1016.14 1016.35 1016.57
1005.54 1005.91 1006.28 1006.68 1007.14 1007.68 1008.27 1008.89 1009.48 1009.99 1010.38 1010.64 1010.76 1010.77 1010.73 1010.69 1010.70 1010.81 1011.05 1011.41 1011.87 1012.40 1012.97 1013.54 1014.08 1014.58 1015.03 1015.43 1015.77 1016.05 1016.27 1016.41 1016.48 1016.47 1016.40 1016.29 1016.19 1016.12 1016.11 1016.19 1016.35 1016.56 1016.78
1005.96 1006.36 1006.72 1007.09 1007.50 1007.98 1008.51 1009.07 1009.62 1010.10 1010.46 1010.69 1010.80 1010.79 1010.74 1010.68 1010.68 1010.78 1011.00 1011.35 1011.80 1012.33 1012.89 1013.46 1014.00 1014.51 1014.98 1015.40 1015.77 1016.09 1016.35 1016.53 1016.64 1016.66 1016.62 1016.53 1016.43 1016.37 1016.36 1016.43 1016.58 1016.78 1017.00
1006.33 1006.77 1007.13 1007.46 1007.81 1008.21 1008.66 1009.14 1009.62 1010.05 1010.38 1010.58 1010.68 1010.68 1010.63 1010.59 1010.60 1010.71 1010.94 1011.29 1011.73 1012.23 1012.76 1013.30 1013.82 1014.30 1014.76 1015.18 1015.57 1015.92 1016.22 1016.46 1016.63 1016.71 1016.71 1016.67 1016.60 1016.55 1016.55 1016.62 1016.76 1016.96 1017.18
1006.62 1007.08 1007.43 1007.71 1008.00 1008.32 1008.68 1009.08 1009.48 1009.84 1010.13 1010.32 1010.42 1010.44 1010.43 1010.42 1010.48 1010.62 1010.87 1011.21 1011.64 1012.11 1012.59 1013.08 1013.54 1013.98 1014.39 1014.79 1015.18 1015.55 1015.89 1016.18 1016.40 1016.55 1016.62 1016.63 1016.61 1016.60 1016.62 1016.69 1016.83 1017.03 1017.26
1006.79 1007.24 1007.57 1007.82 1008.04 1008.29 1008.58 1008.90 1009.23 1009.54 1009.79 1009.97 1010.08 1010.13 1010.17 1010.22 1010.33 1010.51 1010.78 1011.14 1011.54 1011.97 1012.41 1012.82 1013.21 1013.57 1013.93 1014.28 1014.64 1015.01 1015.36 1015.69 1015.97 1016.18 1016.31 1016.39 1016.42 1016.45 1016.50 1016.59 1016.74 1016.95 1017.19
Thickness
5820 5818 5813 5809 5805 5801 5797 5793 5790 5788 5786 5784 5782 5780 5777 5774 5772 5770 5768 5767 5766 5765 5765 5765 5765 5766 5768 5769 5770 5771 5772 5772 5772 5772 5772 5772 5772 5773 5774 5775 5777 5778 5779
5825 5818 5813 5809 5805 5800 5796 5793 5789 5786 5784 5782 5781 5778 5775 5772 5769 5767 5766 5764 5763 5762 5761 5760 5760 5761 5763 5766 5767 5769 5769 5770 5771 5771 5771 5771 5771 5772 5773 5774 5775 5776 5777
5825 5818 5812 5808 5803 5799 5795 5792 5788 5785 5782 5780 5779 5776 5773 5770 5767 5765 5763 5762 5760 5758 5757 5755 5754 5756 5759 5762 5764 5766 5767 5768 5769 5770 5770 5770 5770 5771 5772 5772 5774 5774 5774
5825 5818 5813 5807 5802 5798 5794 5790 5787 5784 5781 5778 5776 5774 5771 5767 5764 5762 5761 5759 5757 5756 5755 5753 5751 5752 5755 5758 5761 5763 5764 5766 5767 5768 5769 5769 5770 5770 5770 5771 5772 5772 5771
5825 5819 5812 5806 5800 5796 5792 5788 5785 5782 5779 5776 5773 5770 5767 5765 5762 5759 5758 5757 5755 5754 5753 5752 5751 5751 5752 5755 5758 5760 5762 5763 5764 5765 5767 5767 5767 5768 5769 5769 5770 5770 5769
5822 5816 5809 5804 5799 5794 5790 5787 5783 5780 5777 5774 5770 5767 5764 5762 5760 5757 5756 5755 5754 5753 5752 5751 5750 5749 5750 5752 5755 5757 5759 5760 5761 5762 5763 5763 5764 5765 5766 5767 5767 5767 5767
5819 5815 5807 5802 5798 5794 5789 5786 5782 5779 5776 5772 5769 5765 5762 5760 5758 5756 5754 5753 5752 5751 5751 5750 5750 5749 5749 5751 5753 5755 5756 5757 5760 5760 5760 5760 5761 5763 5764 5765 5765 5765 5766
5818 5814 5806 5801 5798 5794 5789 5784 5781 5777 5774 5771 5767 5763 5760 5757 5756 5754 5752 5751 5750 5750 5749 5749 5749 5750 5750 5751 5752 5752 5754 5755 5758 5759 5758 5758 5759 5760 5762 5763 5763 5764 5765
5818 5814 5807 5801 5797 5793 5789 5784 5780 5776 5772 5769 5766 5762 5758 5755 5753 5751 5749 5748 5748 5748 5748 5747 5748 5748 5749 5749 5750 5751 5753 5755 5756 5758 5757 5756 5757 5758 5759 5760 5761 5762 5762
5817 5814 5810 5805 5800 5794 5788 5783 5778 5774 5770 5766 5763 5760 5756 5753 5750 5748 5746 5745 5745 5744 5744 5745 5745 5746 5747 5748 5749 5751 5752 5753 5755 5754 5753 5754 5754 5755 5756 5757 5758 5759 5759
5814 5813 5812 5807 5803 5797 5789 5782 5777 5772 5768 5764 5761 5757 5754 5751 5748 5746 5744 5742 5742 5741 5741 5742 5743 5744 5745 5747 5748 5749 5751 5753 5753 5751 5750 5751 5752 5753 5753 5754 5755 5755 5756
5810 5810 5811 5808 5803 5798 5791 5782 5777 5773 5768 5764 5761 5757 5754 5752 5749 5745 5741 5739 5739 5738 5738 5740 5741 5742 5743 5744 5747 5748 5750 5752 5750 5748 5746 5748 5749 5751 5751 5752 5752 5752 5753
5812 5811 5810 5807 5803 5797 5790 5783 5778 5774 5769 5767 5763 5759 5755 5752 5747 5742 5740 5736 5736 5736 5737 5738 5739 5741 5743 5746 5746 5747 5747 5747 5745 5743 5743 5744 5746 5748 5749 5750 5750 5750 5751
5812 5810 5808 5807 5802 5796 5790 5784 5779 5775 5771 5769 5766 5763 5759 5755 5750 5744 5741 5738 5736 5736 5737 5738 5739 5742 5745 5746 5747 5745 5743 5740 5739 5738 5738 5741 5743 5745 5746 5746 5747 5747 5748
5812 5809 5808 5805 5801 5795 5790 5784 5780 5776 5772 5770 5767 5764 5760 5756 5751 5746 5743 5740 5739 5738 5738 5738 5739 5739 5740 5741 5741 5740 5738 5736 5734 5733 5733 5736 5738 5740 5742 5742 5743 5744 5745
5813 5810 5808 5805 5801 5796 5789 5785 5782 5778 5773 5771 5767 5764 5760 5756 5752 5746 5744 5740 5740 5738 5737 5737 5736 5734 5733 5733 5733 5734 5734 5733 5731 5729 5729 5731 5733 5735 5736 5737 5738 5739 5742
5814 5811 5807 5803 5801 5795 5790 5786 5783 5778 5774 5770 5766 5763 5759 5756 5752 5746 5743 5739 5739 5738 5737 5736 5734 5731 5728 5727 5727 5728 5729 5730 5729 5727 5726 5726 5727 5728 5730 5731 5733 5735 5737
5816 5811 5806 5802 5799 5794 5789 5784 5781 5777 5773 5769 5765 5761 5759 5755 5752 5747 5742 5738 5738 5737 5736 5733 5730 5726 5724 5723 5722 5723 5723 5725 5726 5725 5724 5723 5723 5722 5723 5725 5727 5729 5732
5817 5810 5804 5800 5795 5791 5787 5782 5779 5776 5772 5768 5764 5759 5757 5754 5751 5747 5742 5738 5737 5735 5733 5730 5726 5723 5720 5717 5716 5717 5719 5720 5721 5723 5721 5720 5720 5719 5719 5720 5722 5724 5727
5817 5812 5805 5799 5793 5788 5783 5778 5773 5770 5767 5765 5761 5757 5754 5752 5750 5747 5741 5736 5735 5732 5729 5726 5722 5720 5717 5715 5714 5712 5713 5716 5717 5717 5717 5717 5717 5717 5717 5718 5719 5720 5722
5812 5807 5800 5793 5787 5781 5774 5769 5764 5760 5759 5757 5754 5752 5749 5748 5746 5745 5739 5734 5731 5727 5724 5722 5719 5715 5712 5713 5707 5702 5706 5711 5711 5711 5712 5712 5713 5714 5715 5717 5717 5718 5719
5803 5799 5794 5787 5781 5775 5769 5765 5761 5756 5753 5751 5748 5745 5743 5741 5741 5740 5737 5731 5727 5723 5720 5717 5715 5709 5707 5709 5702 5693 5690 5694 5701 5708 5708 5708 5709 5711 5712 5714 5716 5717 5717
5793 5789 5786 5779 5773 5768 5764 5759 5755 5751 5746 5743 5740 5738 5738 5736 5735 5734 5732 5727 5722 5718 5715 5712 5710 5705 5700 5703 5705 5695 5687 5684 5690 5699 5703 5705 5706 5708 5710 5712 5714 5715 5714
5785 5783 5778 5773 5768 5763 5758 5752 5747 5741 5736 5736 5735 5733 5732 5730 5727 5726 5725 5722 5717 5713 5710 5708 5707 5703 5699 5695 5699 5702 5702 5699 5691 5688 5696 5702 5704 5704 5706 5709 5710 5711 5711
5779 5775 5772 5768 5764 5760 5755 5750 5744 5739 5735 5734 5733 5729 5726 5724 5722 5720 5718 5717 5713 5709 5706 5704 5702 5700 5697 5694 5692 5695 5699 5702 5703 5692 5688 5694 5699 5702 5704 5706 5706 5707 5707
5771 5768 5766 5761 5758 5755 5751 5746 5741 5736 5732 5728 5725 5721 5719 5716 5715 5714 5712 5710 5708 5705 5702 5700 5698 5697 5695 5694 5692 5692 5695 5696 5697 5697 5693 5693 5694 5699 5703 5704 5704 5704 5704